Weather History for Wheeler AAF, HI

Change the Weather History Date:

Wednesday, November 20, 2013

  Actual Average Record
Temperature  
Mean Temperature 72 °F -  
Max Temperature 79 °F 76 °F 81 °F (2014)
Min Temperature 64 °F 65 °F 63 °F (2007)
Cooling Degree Days 6    
Growing Degree Days 22 (Base 50)    
Moisture  
Dew Point 66 °F    
Average Humidity 78    
Maximum Humidity 92    
Minimum Humidity 64    
Precipitation  
Precipitation 0.00 in - - ()
Sea Level Pressure  
Sea Level Pressure 29.95 in    
Wind  
Wind Speed 3 mph (ESE)    
Max Wind Speed 9 mph    
Max Gust Speed -    
Visibility 10 miles    
Events      
Averages and records for this station are not official NWS values.
T = Trace of Precipitation, MM = Missing Value Source: NWS Daily Summary

Daily Weather History Graph

Daily Weather History Graph

Search for Another Location

Airport:

Trip Planner

Search our weather history database for the weather conditions in past years. The results will help you decide how hot, cold, wet, or windy it might be!

Date:

Astronomy

Nov. 20, 2013 Rise Set
Actual Time 6:46 AM HST 5:49 PM HST
Civil Twilight 6:23 AM HST 6:12 PM HST
Nautical Twilight 5:55 AM HST 6:39 PM HST
Astronomical Twilight 5:29 AM HST 7:06 PM HST
Moon 8:41 PM HST (11/20) 9:19 AM HST (11/20)
Length of Visible Light 11h 49m
Length of Day
11h 02m
Waning Gibbous, 90% of the Moon is Illuminated
Nov 20
Waning Gibbous
Nov 25
Last Quarter
Dec 2
New
Dec 9
First Quarter
Dec 16
Full

Hourly Weather History & Observations

Time (HST) Temp. Dew Point Humidity Pressure Visibility Wind Dir Wind Speed Gust Speed Precip Events Conditions
12:58 AM 66.7 °F 64.0 °F 91% 29.95 in 10.0 mi North 2.3 mph - N/A   Clear
1:58 AM 66.7 °F 63.9 °F 90% 29.94 in 10.0 mi West 3.5 mph - N/A   Clear
2:58 AM 64.8 °F 62.2 °F 92% 29.94 in 10.0 mi Calm Calm - N/A   Clear
3:58 AM 64.6 °F 62.2 °F 92% 29.94 in 10.0 mi NNW 2.3 mph - N/A   Clear
4:58 AM 65.8 °F 63.1 °F 91% 29.93 in 10.0 mi WNW 2.3 mph - N/A   Clear
5:58 AM 64.2 °F 61.5 °F 91% 29.93 in 10.0 mi Calm Calm - N/A   Clear
6:58 AM 66.2 °F 63.5 °F 91% 29.95 in 10.0 mi NNE 3.5 mph - N/A   Clear
7:58 AM 66.7 °F 63.7 °F 90% 29.95 in 10.0 mi Calm Calm - N/A   Clear
8:58 AM 71.6 °F 67.1 °F 86% 29.97 in 10.0 mi Calm Calm - N/A   Clear
9:58 AM 75.4 °F 68.5 °F 79% 29.98 in 10.0 mi SSE 2.3 mph - N/A   Clear
10:58 AM 77.4 °F 68.0 °F 73% 29.96 in 10.0 mi Variable 1.2 mph - N/A   Partly Cloudy
11:23 AM 78.8 °F 68.0 °F 69% 29.98 in 10.0 mi ENE 3.5 mph - N/A   Mostly Cloudy
11:53 AM 78.8 °F 66.2 °F 65% 29.97 in 10.0 mi West 4.6 mph - N/A   Mostly Cloudy
11:58 AM 78.3 °F 66.7 °F 68% 29.94 in 10.0 mi Calm Calm - N/A   Scattered Clouds
12:58 PM 79.7 °F 66.6 °F 64% 29.91 in 10.0 mi Variable 3.5 mph - N/A   Clear
1:58 PM 78.1 °F 66.2 °F 67% 29.91 in 10.0 mi NW 9.2 mph - N/A   Clear
2:38 PM 77.0 °F 66.2 °F 69% 29.92 in 10.0 mi NNW 5.8 mph - N/A   Overcast
2:58 PM 77.7 °F 66.9 °F 69% 29.90 in 10.0 mi Variable 2.3 mph - N/A   Overcast
3:33 PM 78.8 °F 68.0 °F 69% 29.92 in 10.0 mi SE 4.6 mph - N/A   Overcast
3:58 PM 78.1 °F 68.2 °F 71% 29.90 in 10.0 mi SE 4.6 mph - N/A   Mostly Cloudy
4:13 PM 78.8 °F 68.0 °F 69% 29.92 in 10.0 mi SE 5.8 mph - N/A   Mostly Cloudy
4:23 PM 77.0 °F 68.0 °F 74% 29.93 in 10.0 mi SSE 5.8 mph - N/A   Mostly Cloudy
4:28 PM 77.0 °F 68.0 °F 74% 29.93 in 10.0 mi SSE 2.3 mph - N/A   Mostly Cloudy
4:33 PM 77.0 °F 68.0 °F 74% 29.93 in 10.0 mi Variable 1.2 mph - N/A   Mostly Cloudy
4:38 PM 77.0 °F 68.0 °F 74% 29.93 in 10.0 mi SSE 3.5 mph - N/A   Mostly Cloudy
4:58 PM 76.8 °F 67.8 °F 74% 29.91 in 10.0 mi SE 4.6 mph - N/A   Overcast
5:58 PM 75.4 °F 66.4 °F 73% 29.94 in 10.0 mi SSE 2.3 mph - N/A   Mostly Cloudy
6:03 PM 75.2 °F 66.2 °F 73% 29.96 in 10.0 mi SE 1.2 mph - N/A   Scattered Clouds
6:58 PM 73.8 °F 66.4 °F 78% 29.94 in 10.0 mi Calm Calm - N/A   Clear
7:18 PM 73.4 °F 66.2 °F 78% 29.98 in 10.0 mi NNW 4.6 mph - N/A   Mostly Cloudy
7:38 PM 73.4 °F 68.0 °F 83% 29.99 in 10.0 mi NNW 4.6 mph - N/A   Mostly Cloudy
7:58 PM 73.9 °F 67.1 °F 79% 29.97 in 10.0 mi NNW 5.8 mph - N/A   Scattered Clouds
8:58 PM 72.7 °F 67.3 °F 83% 30.00 in 10.0 mi West 3.5 mph - N/A   Partly Cloudy
9:58 PM 72.7 °F 67.6 °F 84% 29.99 in 10.0 mi Calm Calm - N/A   Scattered Clouds
10:58 PM 70.2 °F 66.6 °F 88% 29.99 in 10.0 mi Calm Calm - N/A   Mostly Cloudy
11:58 PM 69.8 °F 66.7 °F 90% 29.97 in 10.0 mi ESE 3.5 mph - N/A   Scattered Clouds